M I D A S
Marine Information and Data Acquisition System
Tripno 2304 of the Zeeleeuw from 2012-02-21 07:21:21 to 2012-02-21 16:34:13
Back to CruiseResearch ActivitiesStationsMapUnderway DataData graphs

EquipmentUnitsComments
TimeDGPSUTC
LatitudeDGPSDM.mWGS84
LongitudeDGPSDM.mWGS84
SpeedMeteo Stationm/sRelative wind speed
DirectionMeteo StationdegRelative wind direction
TemperatureMeteo Stationdeg CelciusAir temperature
PressureMeteo StationPaAtmospheric pressure
HumidityMeteo Station%Relative humidity
Missing or incorrect values are displayed as -999
Metereological data collected by the RV Zeeleeuw from 2012-02-21 07:05:18 to 2012-02-21 16:35:23
                                                                                    Next 1000 lines
Time Latitude Longitude Speed Direction Temperature Pressure Humidity
2012-02-21 07:05:28 51°13.636 2°56.016 2.2 2 2.6 102910 43
2012-02-21 07:05:33 51°13.636 2°56.015 2.8 5 2.6 102910 44
2012-02-21 07:05:38 51°13.636 2°56.016 4.2 12 2.6 102910 44
2012-02-21 07:05:43 51°13.636 2°56.016 2.3 10 2.5 102910 43
2012-02-21 07:05:48 51°13.636 2°56.016 2.4 21 2.5 102910 43
2012-02-21 07:05:53 51°13.636 2°56.016 2.6 20 2.5 102910 44
2012-02-21 07:05:58 51°13.636 2°56.016 3.8 6 2.5 102910 44
2012-02-21 07:06:03 51°13.636 2°56.016 3.7 15 2.6 102910 44
2012-02-21 07:06:08 51°13.636 2°56.016 3.1 4 2.6 102910 44
2012-02-21 07:06:12 51°13.636 2°56.016 3.4 5 2.6 102910 43
2012-02-21 07:06:17 51°13.637 2°56.016 4.1 6 2.6 102910 43
2012-02-21 07:06:22 51°13.637 2°56.016 4.2 8 2.6 102910 44
2012-02-21 07:06:27 51°13.637 2°56.016 2.9 15 2.6 102910 44
2012-02-21 07:06:32 51°13.637 2°56.017 3.6 6 2.6 102910 43
2012-02-21 07:06:38 51°13.637 2°56.017 2.2 9 2.6 102910 43
2012-02-21 07:06:43 51°13.637 2°56.017 2.5 2 2.6 102910 43
2012-02-21 07:06:48 51°13.637 2°56.017 2.7 5 2.6 102910 43
2012-02-21 07:06:53 51°13.637 2°56.017 2.9 9 2.6 102910 43
2012-02-21 07:06:57 51°13.637 2°56.017 2.2 4 2.6 102910 43
2012-02-21 07:07:03 51°13.637 2°56.017 2.5 7 2.6 102910 43
2012-02-21 07:07:07 51°13.637 2°56.017 3.7 357 2.6 102910 43
2012-02-21 07:07:13 51°13.637 2°56.017 2.8 1 2.6 102920 43
2012-02-21 07:07:18 51°13.637 2°56.017 2.2 10 2.6 102920 43
2012-02-21 07:07:22 51°13.637 2°56.017 2 5 2.6 102910 45
2012-02-21 07:07:27 51°13.637 2°56.017 2.2 23 2.6 102910 45
2012-02-21 07:07:32 51°13.637 2°56.017 1.2 28 2.6 102910 43
2012-02-21 07:07:37 51°13.637 2°56.017 1 5 2.6 102910 43
2012-02-21 07:07:42 51°13.637 2°56.017 3.1 3 2.6 102920 44
2012-02-21 07:07:47 51°13.637 2°56.017 2.7 9 2.6 102920 44
2012-02-21 07:07:53 51°13.637 2°56.017 2.4 10 2.6 102910 44
2012-02-21 07:07:58 51°13.637 2°56.018 2.9 355 2.6 102910 44
2012-02-21 07:08:03 51°13.637 2°56.018 1.2 18 2.6 102920 44
2012-02-21 07:08:07 51°13.637 2°56.018 0.4 1 2.6 102920 44
2012-02-21 07:08:13 51°13.637 2°56.018 0.7 5 2.6 102910 45
2012-02-21 07:08:18 51°13.636 2°56.018 1.4 18 2.6 102910 45
2012-02-21 07:08:23 51°13.636 2°56.018 0.8 22 2.6 102910 43
2012-02-21 07:08:27 51°13.636 2°56.018 2.3 11 2.6 102910 43
2012-02-21 07:08:33 51°13.636 2°56.018 2.4 11 2.6 102910 45
2012-02-21 07:08:38 51°13.636 2°56.018 3 13 2.6 102910 45
2012-02-21 07:08:43 51°13.636 2°56.018 2.5 4 2.6 102920 44
2012-02-21 07:08:47 51°13.636 2°56.018 1.9 356 2.6 102920 44
2012-02-21 07:08:53 51°13.636 2°56.018 2.7 9 2.6 102920 43
2012-02-21 07:08:57 51°13.636 2°56.018 2.1 13 2.6 102920 43
2012-02-21 07:09:03 51°13.636 2°56.018 1.9 353 2.6 102920 42
2012-02-21 07:09:07 51°13.636 2°56.018 2.7 14 2.6 102920 42
2012-02-21 07:09:12 51°13.636 2°56.018 2.3 12 2.6 102920 45
2012-02-21 07:09:17 51°13.636 2°56.018 2 7 2.6 102920 45
2012-02-21 07:09:23 51°13.636 2°56.018 3.3 15 2.6 102910 45
2012-02-21 07:09:28 51°13.636 2°56.018 2.5 14 2.6 102910 45
2012-02-21 07:09:33 51°13.636 2°56.018 2.5 15 2.6 102910 42
2012-02-21 07:09:38 51°13.636 2°56.018 2 21 2.6 102910 42
2012-02-21 07:09:43 51°13.636 2°56.018 1.6 11 2.6 102910 43
2012-02-21 07:09:48 51°13.636 2°56.018 2 14 2.6 102910 43
2012-02-21 07:09:52 51°13.636 2°56.018 1.2 19 2.6 102920 43
2012-02-21 07:09:58 51°13.636 2°56.018 2.3 36 2.6 102920 43
2012-02-21 07:10:03 51°13.636 2°56.018 2.1 33 2.6 102920 43
2012-02-21 07:10:08 51°13.636 2°56.018 1.4 32 2.6 102920 43
2012-02-21 07:10:12 51°13.636 2°56.018 1.2 9 2.6 102920 44
2012-02-21 07:10:18 51°13.636 2°56.018 1.2 37 2.6 102920 44
2012-02-21 07:10:23 51°13.636 2°56.019 1.9 16 2.6 102920 45
2012-02-21 07:10:27 51°13.635 2°56.019 2.3 27 2.6 102920 45
2012-02-21 07:10:33 51°13.635 2°56.019 2.3 25 2.6 102920 45
2012-02-21 07:10:37 51°13.635 2°56.019 0.8 28 2.6 102920 45
2012-02-21 07:10:43 51°13.635 2°56.019 2.7 38 2.6 102920 44
2012-02-21 07:10:48 51°13.635 2°56.019 3.2 359 2.6 102920 44
2012-02-21 07:10:53 51°13.636 2°56.019 3.1 10 2.6 102920 43
2012-02-21 07:10:57 51°13.636 2°56.019 2.7 21 2.6 102920 43
2012-02-21 07:11:02 51°13.635 2°56.019 2.6 7 2.5 102920 45
2012-02-21 07:11:07 51°13.635 2°56.019 3.2 1 2.5 102920 45
2012-02-21 07:11:12 51°13.634 2°56.019 3 10 2.6 102920 43
2012-02-21 07:11:18 51°13.634 2°56.019 2.5 12 2.6 102920 43
2012-02-21 07:11:22 51°13.634 2°56.019 2.3 4 2.6 102920 45
2012-02-21 07:11:28 51°13.634 2°56.018 2.4 2 2.6 102920 45
2012-02-21 07:11:33 51°13.634 2°56.018 2.3 359 2.6 102910 43
2012-02-21 07:11:38 51°13.634 2°56.018 2.6 1 2.6 102910 43
2012-02-21 07:11:42 51°13.634 2°56.018 2.6 2 2.6 102910 42
2012-02-21 07:11:48 51°13.634 2°56.018 2.8 6 2.6 102910 42
2012-02-21 07:11:53 51°13.634 2°56.018 2.1 5 2.6 102920 45
2012-02-21 07:11:58 51°13.634 2°56.019 2.7 22 2.6 102920 45
2012-02-21 07:12:03 51°13.635 2°56.019 2.8 24 2.6 102920 43
2012-02-21 07:12:08 51°13.635 2°56.019 2.9 23 2.6 102920 43
2012-02-21 07:12:13 51°13.635 2°56.019 2.7 11 2.6 102910 44
2012-02-21 07:12:17 51°13.635 2°56.019 2.9 4 2.6 102910 44
2012-02-21 07:12:21 51°13.635 2°56.019 2.4 21 2.5 102920 45
2012-02-21 07:12:27 51°13.634 2°56.018 3 26 2.5 102920 45
2012-02-21 07:12:33 51°13.635 2°56.018 2.6 17 2.5 102920 44
2012-02-21 07:12:38 51°13.635 2°56.019 3.4 13 2.5 102920 44
2012-02-21 07:12:43 51°13.635 2°56.019 3.1 13 2.5 102920 43
2012-02-21 07:12:47 51°13.635 2°56.019 2.6 14 2.5 102920 43
2012-02-21 07:12:52 51°13.635 2°56.018 3 6 2.5 102920 43
2012-02-21 07:12:57 51°13.635 2°56.018 2.8 359 2.5 102920 43
2012-02-21 07:13:02 51°13.635 2°56.018 3.3 8 2.5 102920 45
2012-02-21 07:13:07 51°13.636 2°56.016 4.4 23 2.5 102920 45
2012-02-21 07:13:13 51°13.638 2°56.016 3.9 19 2.6 102920 44
2012-02-21 07:13:18 51°13.638 2°56.017 2.6 12 2.6 102920 44
2012-02-21 07:13:23 51°13.638 2°56.017 2.8 4 2.5 102920 43
2012-02-21 07:13:28 51°13.638 2°56.017 3 2 2.5 102920 43
2012-02-21 07:13:33 51°13.638 2°56.017 2.6 15 2.6 102920 44
2012-02-21 07:13:38 51°13.639 2°56.017 3 12 2.6 102920 44
2012-02-21 07:13:42 51°13.639 2°56.017 2.6 4 2.5 102920 44
2012-02-21 07:13:48 51°13.638 2°56.018 2.9 7 2.5 102920 44
2012-02-21 07:13:53 51°13.638 2°56.018 3 9 2.6 102920 45
2012-02-21 07:13:58 51°13.638 2°56.018 2.8 19 2.6 102920 45
2012-02-21 07:14:02 51°13.638 2°56.018 3.1 9 2.6 102920 45
2012-02-21 07:14:07 51°13.637 2°56.018 3.2 1 2.6 102920 45
2012-02-21 07:14:13 51°13.637 2°56.018 2.4 4 2.5 102920 43
2012-02-21 07:14:18 51°13.637 2°56.018 3 21 2.5 102920 43
2012-02-21 07:14:23 51°13.637 2°56.018 2.8 11 2.6 102920 42
2012-02-21 07:14:28 51°13.637 2°56.018 2 18 2.6 102920 42
2012-02-21 07:14:33 51°13.637 2°56.018 2.3 20 2.6 102920 44
2012-02-21 07:14:37 51°13.637 2°56.019 1.6 14 2.6 102920 44
2012-02-21 07:14:43 51°13.637 2°56.019 1.4 17 2.5 102920 44
2012-02-21 07:14:48 51°13.637 2°56.019 2.3 12 2.5 102920 44
2012-02-21 07:14:53 51°13.637 2°56.018 3.1 27 2.6 102920 42
2012-02-21 07:14:57 51°13.636 2°56.018 2.2 8 2.6 102920 42
2012-02-21 07:15:03 51°13.636 2°56.018 3.5 6 2.6 102920 45
2012-02-21 07:15:08 51°13.636 2°56.018 2.9 9 2.6 102920 45
2012-02-21 07:15:12 51°13.636 2°56.018 2.8 14 2.6 102920 43
2012-02-21 07:15:17 51°13.636 2°56.018 1.9 27 2.6 102920 43
2012-02-21 07:15:22 51°13.636 2°56.018 1.7 24 2.6 102920 43
2012-02-21 07:15:27 51°13.636 2°56.018 2 9 2.6 102920 43
2012-02-21 07:15:33 51°13.636 2°56.018 2.7 13 2.6 102920 45
2012-02-21 07:15:38 51°13.636 2°56.018 2.9 8 2.6 102920 45
2012-02-21 07:15:42 51°13.636 2°56.018 4.8 7 2.6 102920 43
2012-02-21 07:15:48 51°13.636 2°56.018 2.7 26 2.6 102920 43
2012-02-21 07:15:53 51°13.637 2°56.018 3.2 5 2.6 102920 43
2012-02-21 07:15:58 51°13.637 2°56.018 3.5 355 2.6 102920 43
2012-02-21 07:16:02 51°13.637 2°56.018 3.8 356 2.6 102920 43
2012-02-21 07:16:08 51°13.637 2°56.018 3.1 15 2.6 102920 43
2012-02-21 07:16:13 51°13.636 2°56.018 3.3 13 2.6 102920 45
2012-02-21 07:16:18 51°13.636 2°56.018 3.8 19 2.6 102920 45
2012-02-21 07:16:22 51°13.637 2°56.018 3.5 14 2.6 102920 43
2012-02-21 07:16:27 51°13.637 2°56.018 3.3 6 2.6 102920 43
2012-02-21 07:16:32 51°13.637 2°56.018 2.8 27 2.6 102920 43
2012-02-21 07:16:37 51°13.637 2°56.018 2.2 13 2.6 102920 43
2012-02-21 07:16:42 51°13.637 2°56.018 3.5 19 2.6 102920 44
2012-02-21 07:16:48 51°13.637 2°56.018 3.9 20 2.6 102920 44
2012-02-21 07:16:53 51°13.636 2°56.018 3.7 359 2.6 102920 45
2012-02-21 07:16:58 51°13.636 2°56.018 4.7 6 2.6 102920 45
2012-02-21 07:17:03 51°13.637 2°56.018 4.4 18 2.6 102920 42
2012-02-21 07:17:07 51°13.636 2°56.018 4.5 16 2.6 102920 42
2012-02-21 07:17:13 51°13.636 2°56.018 4.4 14 2.6 102920 43
2012-02-21 07:17:18 51°13.636 2°56.018 3.1 12 2.6 102920 43
2012-02-21 07:17:23 51°13.636 2°56.018 3.8 12 2.6 102920 43
2012-02-21 07:17:28 51°13.636 2°56.018 5.3 7 2.6 102920 43
2012-02-21 07:17:33 51°13.636 2°56.018 4.7 7 2.6 102920 43
2012-02-21 07:17:38 51°13.636 2°56.018 3.4 3 2.6 102920 43
2012-02-21 07:17:43 51°13.636 2°56.018 3.4 9 2.6 102920 43
2012-02-21 07:17:47 51°13.636 2°56.018 3.7 15 2.6 102920 43
2012-02-21 07:17:53 51°13.635 2°56.018 4.7 18 2.6 102920 45
2012-02-21 07:17:58 51°13.636 2°56.018 3.7 18 2.6 102920 45
2012-02-21 07:18:03 51°13.636 2°56.018 3.8 18 2.6 102920 44
2012-02-21 07:18:08 51°13.636 2°56.018 5.3 15 2.6 102920 44
2012-02-21 07:18:13 51°13.636 2°56.019 3.3 11 2.6 102920 45
2012-02-21 07:18:18 51°13.635 2°56.018 4.5 10 2.6 102920 45
2012-02-21 07:18:23 51°13.635 2°56.017 3.9 17 2.6 102920 44
2012-02-21 07:18:27 51°13.634 2°56.017 5.6 16 2.6 102920 44
2012-02-21 07:18:33 51°13.635 2°56.017 5 20 2.6 102930 43
2012-02-21 07:18:38 51°13.635 2°56.018 4 22 2.6 102930 43
2012-02-21 07:18:42 51°13.635 2°56.018 3 14 2.6 102920 44
2012-02-21 07:18:47 51°13.635 2°56.018 2.5 10 2.6 102920 44
2012-02-21 07:18:52 51°13.635 2°56.018 3 27 2.6 102920 45
2012-02-21 07:18:58 51°13.635 2°56.018 2.4 14 2.6 102920 45
2012-02-21 07:19:03 51°13.635 2°56.018 2.9 6 2.6 102920 43
2012-02-21 07:19:07 51°13.634 2°56.018 3.5 12 2.6 102920 43
2012-02-21 07:19:12 51°13.634 2°56.018 3.4 6 2.6 102920 43
2012-02-21 07:19:18 51°13.634 2°56.018 2.6 13 2.6 102920 43
2012-02-21 07:19:23 51°13.634 2°56.018 3.4 15 2.6 102920 44
2012-02-21 07:19:27 51°13.633 2°56.018 2.8 5 2.6 102920 44
2012-02-21 07:19:33 51°13.633 2°56.018 3.5 9 2.6 102920 45
2012-02-21 07:19:37 51°13.633 2°56.017 3.3 18 2.6 102920 45
2012-02-21 07:19:42 51°13.633 2°56.017 3.7 20 2.6 102920 42
2012-02-21 07:19:47 51°13.633 2°56.018 3.3 24 2.6 102920 42
2012-02-21 07:19:52 51°13.634 2°56.018 2.8 20 2.6 102920 44
2012-02-21 07:19:57 51°13.635 2°56.018 3 15 2.6 102920 44
2012-02-21 07:20:02 51°13.635 2°56.018 2.6 8 2.6 102920 45
2012-02-21 07:20:07 51°13.636 2°56.018 1.6 17 2.6 102920 45
2012-02-21 07:20:13 51°13.636 2°56.017 1.9 16 2.6 102920 42
2012-02-21 07:20:18 51°13.636 2°56.017 0.8 13 2.6 102920 42
2012-02-21 07:20:22 51°13.636 2°56.017 1.2 8 2.6 102920 44
2012-02-21 07:20:27 51°13.636 2°56.017 2.1 6 2.6 102920 44
2012-02-21 07:20:33 51°13.636 2°56.017 2.1 2 2.6 102920 44
2012-02-21 07:20:38 51°13.636 2°56.017 2.2 21 2.6 102920 44
2012-02-21 07:20:42 51°13.636 2°56.017 2.6 13 2.6 102920 43
2012-02-21 07:20:47 51°13.636 2°56.018 3 6 2.6 102920 43
2012-02-21 07:20:52 51°13.636 2°56.017 3.1 5 2.6 102930 43
2012-02-21 07:20:58 51°13.636 2°56.017 2.8 4 2.6 102930 43
2012-02-21 07:21:03 51°13.636 2°56.017 2.9 16 2.6 102930 44
2012-02-21 07:21:07 51°13.636 2°56.017 4.1 25 2.6 102930 44
2012-02-21 07:21:12 51°13.636 2°56.017 3.9 16 2.6 102920 44
2012-02-21 07:21:18 51°13.636 2°56.018 3.2 359 2.6 102920 44
2012-02-21 07:21:23 51°13.636 2°56.018 2.8 6 2.6 102920 45
2012-02-21 07:21:27 51°13.636 2°56.018 2.1 1 2.6 102920 45
2012-02-21 07:21:32 51°13.636 2°56.018 1.8 358 2.6 102920 45
2012-02-21 07:21:37 51°13.636 2°56.017 4.4 8 2.6 102920 45
2012-02-21 07:21:43 51°13.636 2°56.018 4.6 17 2.6 102920 44
2012-02-21 07:21:47 51°13.636 2°56.018 3.7 10 2.6 102920 44
2012-02-21 07:21:52 51°13.636 2°56.018 2.5 2 2.6 102930 45
2012-02-21 07:21:57 51°13.636 2°56.018 3.3 5 2.6 102930 45
2012-02-21 07:22:03 51°13.636 2°56.018 4.3 13 2.6 102930 43
2012-02-21 07:22:07 51°13.636 2°56.018 4.5 13 2.6 102930 43
2012-02-21 07:22:12 51°13.636 2°56.018 3.8 24 2.6 102920 44
2012-02-21 07:22:17 51°13.636 2°56.018 3.1 22 2.6 102920 44
2012-02-21 07:22:22 51°13.636 2°56.018 3.4 24 2.6 102920 44
2012-02-21 07:22:27 51°13.636 2°56.018 3.8 7 2.6 102920 44
2012-02-21 07:22:32 51°13.636 2°56.018 4.3 13 2.6 102920 45
2012-02-21 07:22:37 51°13.636 2°56.018 3.1 8 2.6 102920 45
2012-02-21 07:22:42 51°13.636 2°56.018 3.3 7 2.6 102920 43
2012-02-21 07:22:47 51°13.636 2°56.018 3.5 13 2.6 102920 43
2012-02-21 07:22:52 51°13.636 2°56.018 3.5 8 2.6 102920 43
2012-02-21 07:22:57 51°13.636 2°56.018 3.1 11 2.6 102920 43
2012-02-21 07:23:02 51°13.636 2°56.018 2.7 15 2.6 102920 45
2012-02-21 07:23:07 51°13.636 2°56.018 2.2 9 2.6 102920 45
2012-02-21 07:23:12 51°13.636 2°56.018 2 12 2.6 102930 45
2012-02-21 07:23:17 51°13.636 2°56.018 2.2 16 2.6 102930 45
2012-02-21 07:23:22 51°13.636 2°56.018 3 19 2.6 102930 44
2012-02-21 07:23:27 51°13.635 2°56.018 2.8 24 2.6 102930 44
2012-02-21 07:23:32 51°13.635 2°56.018 3.6 24 2.6 102920 43
2012-02-21 07:23:37 51°13.635 2°56.018 2.6 24 2.6 102920 43
2012-02-21 07:23:42 51°13.635 2°56.018 3.2 18 2.6 102930 43
2012-02-21 07:23:47 51°13.635 2°56.018 4.1 17 2.6 102930 43
2012-02-21 07:23:52 51°13.635 2°56.018 3.6 19 2.6 102930 43
2012-02-21 07:23:57 51°13.635 2°56.018 3.3 26 2.6 102930 43
2012-02-21 07:24:02 51°13.635 2°56.018 2.8 22 2.6 102930 45
2012-02-21 07:24:07 51°13.635 2°56.018 2.6 33 2.6 102930 45
2012-02-21 07:24:11 51°13.634 2°56.018 2.2 21 2.6 102930 45
2012-02-21 07:24:17 51°13.634 2°56.017 2.5 43 2.6 102930 45
2012-02-21 07:24:22 51°13.634 2°56.017 2.4 26 2.6 102920 45
2012-02-21 07:24:27 51°13.634 2°56.016 1.5 28 2.6 102920 45
2012-02-21 07:24:32 51°13.635 2°56.013 2 36 2.6 102930 45
2012-02-21 07:24:37 51°13.636 2°56.01 3.3 39 2.6 102930 45
2012-02-21 07:24:42 51°13.637 2°56.005 3.4 20 2.6 102930 45
2012-02-21 07:24:47 51°13.638 2°55.999 3.9 37 2.6 102930 45
2012-02-21 07:24:52 51°13.64 2°55.992 5.4 33 2.6 102930 45
2012-02-21 07:24:57 51°13.641 2°55.984 4.8 42 2.6 102930 45
2012-02-21 07:25:02 51°13.643 2°55.976 4.3 25 2.6 102930 44
2012-02-21 07:25:07 51°13.645 2°55.966 4.3 42 2.6 102930 44
2012-02-21 07:25:12 51°13.647 2°55.957 5.3 38 2.6 102930 43
2012-02-21 07:25:17 51°13.649 2°55.947 4 39 2.6 102930 43
2012-02-21 07:25:22 51°13.652 2°55.937 3.2 37 2.6 102930 45
2012-02-21 07:25:27 51°13.654 2°55.927 3.9 45 2.6 102930 45
2012-02-21 07:25:32 51°13.657 2°55.916 4.3 43 2.6 102930 42
2012-02-21 07:25:37 51°13.659 2°55.906 3.2 32 2.6 102930 42
2012-02-21 07:25:42 51°13.662 2°55.895 3 31 2.6 102930 43
2012-02-21 07:25:47 51°13.665 2°55.884 1.6 37 2.6 102930 43
2012-02-21 07:25:52 51°13.668 2°55.874 1 38 2.6 102930 44
2012-02-21 07:25:57 51°13.671 2°55.863 3.8 40 2.6 102930 44
2012-02-21 07:26:02 51°13.674 2°55.852 3.1 38 2.6 102920 45
2012-02-21 07:26:07 51°13.678 2°55.842 2.4 36 2.6 102920 45
2012-02-21 07:26:12 51°13.681 2°55.831 3.9 38 2.6 102920 43
2012-02-21 07:26:17 51°13.685 2°55.821 4.3 40 2.6 102920 43
2012-02-21 07:26:22 51°13.689 2°55.811 3.5 74 2.6 102920 43
2012-02-21 07:26:27 51°13.693 2°55.802 4 41 2.6 102920 43
2012-02-21 07:26:32 51°13.697 2°55.792 5.3 37 2.6 102920 43
2012-02-21 07:26:37 51°13.701 2°55.783 3.7 19 2.6 102920 43
2012-02-21 07:26:42 51°13.705 2°55.774 2.7 38 2.6 102920 44
2012-02-21 07:26:47 51°13.71 2°55.766 4.3 30 2.6 102920 44
2012-02-21 07:26:52 51°13.714 2°55.757 3.7 30 2.6 102920 45
2012-02-21 07:26:57 51°13.719 2°55.749 3.4 24 2.6 102920 45
2012-02-21 07:27:02 51°13.724 2°55.741 4.2 27 2.6 102920 44
2012-02-21 07:27:07 51°13.729 2°55.733 3.8 32 2.6 102920 44
2012-02-21 07:27:12 51°13.734 2°55.726 3.6 28 2.6 102920 43
2012-02-21 07:27:17 51°13.739 2°55.719 2.9 18 2.6 102920 43
2012-02-21 07:27:22 51°13.745 2°55.712 3.7 26 2.6 102920 44
2012-02-21 07:27:27 51°13.751 2°55.705 1.4 29 2.6 102920 44
2012-02-21 07:27:32 51°13.757 2°55.699 1.8 39 2.6 102920 45
2012-02-21 07:27:37 51°13.764 2°55.693 2.3 22 2.6 102920 45
2012-02-21 07:27:42 51°13.77 2°55.686 2.8 74 2.6 102920 45
2012-02-21 07:27:47 51°13.777 2°55.68 2 44 2.6 102920 45
2012-02-21 07:27:52 51°13.783 2°55.675 1.7 24 2.6 102920 44
2012-02-21 07:27:57 51°13.79 2°55.669 2.4 33 2.6 102920 44
2012-02-21 07:28:02 51°13.797 2°55.663 1.5 26 2.6 102930 43
2012-02-21 07:28:07 51°13.804 2°55.657 1.8 13 2.6 102930 43
2012-02-21 07:28:12 51°13.812 2°55.652 1.7 36 2.6 102920 43
2012-02-21 07:28:17 51°13.819 2°55.646 0.5 18 2.6 102920 43
2012-02-21 07:28:22 51°13.826 2°55.64 0.6 76 2.6 102920 44
2012-02-21 07:28:27 51°13.833 2°55.635 1.5 44 2.6 102920 44
2012-02-21 07:28:32 51°13.839 2°55.631 2 39 2.6 102920 44
2012-02-21 07:28:37 51°13.846 2°55.626 0.3 331 2.6 102920 44
2012-02-21 07:28:42 51°13.852 2°55.623 2.3 281 2.6 102920 44
2012-02-21 07:28:47 51°13.859 2°55.619 1.5 330 2.6 102920 44
2012-02-21 07:28:52 51°13.866 2°55.616 0.3 359 2.6 102930 45
2012-02-21 07:28:57 51°13.872 2°55.613 0.2 340 2.6 102930 45
2012-02-21 07:29:02 51°13.878 2°55.611 0.2 339 2.6 102930 45
2012-02-21 07:29:07 51°13.885 2°55.609 0.8 35 2.6 102930 45
2012-02-21 07:29:12 51°13.891 2°55.608 1.3 79 2.7 102930 44
2012-02-21 07:29:17 51°13.898 2°55.607 0.5 268 2.7 102930 44
2012-02-21 07:29:22 51°13.904 2°55.607 0.6 282 2.7 102920 44
2012-02-21 07:29:27 51°13.91 2°55.608 0.2 34 2.7 102920 44
2012-02-21 07:29:32 51°13.915 2°55.609 0.2 21 2.7 102920 44
2012-02-21 07:29:37 51°13.921 2°55.61 0.4 36 2.7 102920 44
2012-02-21 07:29:42 51°13.927 2°55.612 0.6 32 2.7 102920 43
2012-02-21 07:29:47 51°13.932 2°55.613 0.2 7 2.7 102920 43
2012-02-21 07:29:52 51°13.937 2°55.615 0.1 283 2.7 102920 44
2012-02-21 07:29:57 51°13.942 2°55.618 -999 341 2.7 102920 44
2012-02-21 07:30:02 51°13.946 2°55.62 -999 352 2.7 102920 44
2012-02-21 07:30:07 51°13.951 2°55.623 0.1 351 2.7 102920 44
2012-02-21 07:30:12 51°13.955 2°55.626 0.1 343 2.7 102930 44
2012-02-21 07:30:17 51°13.959 2°55.63 0.1 328 2.7 102930 44
2012-02-21 07:30:22 51°13.963 2°55.633 -999 349 2.7 102920 44
2012-02-21 07:30:27 51°13.966 2°55.636 -999 349 2.7 102920 44
2012-02-21 07:30:32 51°13.97 2°55.64 -999 340 2.7 102920 44
2012-02-21 07:30:37 51°13.973 2°55.643 0.4 319 2.7 102920 44
2012-02-21 07:30:42 51°13.975 2°55.645 1.1 283 2.7 102930 44
2012-02-21 07:30:47 51°13.977 2°55.648 1.6 29 2.7 102930 44
2012-02-21 07:30:52 51°13.979 2°55.65 2 287 2.7 102930 43
2012-02-21 07:30:57 51°13.98 2°55.651 2.9 316 2.7 102930 43
2012-02-21 07:31:02 51°13.981 2°55.651 3.6 284 2.7 102930 44
2012-02-21 07:31:07 51°13.982 2°55.651 2.3 32 2.7 102930 44
2012-02-21 07:31:12 51°13.982 2°55.649 3.4 280 2.7 102920 45
2012-02-21 07:31:17 51°13.982 2°55.648 3.1 250 2.7 102920 45
2012-02-21 07:31:22 51°13.983 2°55.646 3.9 282 2.8 102920 44
2012-02-21 07:31:27 51°13.983 2°55.642 3.6 244 2.8 102920 44
2012-02-21 07:31:32 51°13.983 2°55.637 3.6 23 2.8 102920 45
2012-02-21 07:31:37 51°13.984 2°55.632 3.5 246 2.8 102920 45
2012-02-21 07:31:42 51°13.986 2°55.626 3.9 286 2.8 102920 45
2012-02-21 07:31:47 51°13.988 2°55.62 4 242 2.8 102920 45
2012-02-21 07:31:52 51°13.991 2°55.613 4.9 282 2.8 102920 44
2012-02-21 07:31:57 51°13.995 2°55.605 7.2 248 2.8 102920 44
2012-02-21 07:32:02 51°13.999 2°55.596 5.8 280 2.8 102920 45
2012-02-21 07:32:07 51°14.004 2°55.586 5 249 2.8 102920 45
2012-02-21 07:32:12 51°14.01 2°55.576 4.8 286 2.8 102920 44
2012-02-21 07:32:17 51°14.016 2°55.566 4.6 246 2.8 102920 44
2012-02-21 07:32:22 51°14.023 2°55.554 5.3 283 2.8 102920 43
2012-02-21 07:32:27 51°14.031 2°55.543 5.2 244 2.8 102920 43
2012-02-21 07:32:32 51°14.039 2°55.531 4.8 246 2.8 102920 45
2012-02-21 07:32:37 51°14.048 2°55.52 4.8 248 2.8 102920 45
2012-02-21 07:32:42 51°14.057 2°55.508 3.5 286 2.8 102920 44
2012-02-21 07:32:47 51°14.067 2°55.496 3.9 35 2.8 102920 44
2012-02-21 07:32:52 51°14.077 2°55.485 3.6 25 2.8 102920 43
2012-02-21 07:32:57 51°14.088 2°55.473 5 31 2.8 102920 43
2012-02-21 07:33:02 51°14.099 2°55.461 4.6 281 2.9 102920 45
2012-02-21 07:33:07 51°14.11 2°55.449 4.6 37 2.9 102920 45
2012-02-21 07:33:12 51°14.121 2°55.437 4.8 280 2.9 102920 44
2012-02-21 07:33:17 51°14.133 2°55.426 4.5 238 2.9 102920 44
2012-02-21 07:33:22 51°14.145 2°55.413 4.3 25 2.9 102920 45
2012-02-21 07:33:27 51°14.157 2°55.401 4.8 37 2.9 102920 45
2012-02-21 07:33:32 51°14.169 2°55.389 5.7 23 2.9 102920 44
2012-02-21 07:33:37 51°14.181 2°55.377 5.2 31 2.9 102920 44
2012-02-21 07:33:42 51°14.193 2°55.366 4.8 20 2.9 102920 44
2012-02-21 07:33:47 51°14.206 2°55.355 4.4 323 2.9 102920 44
2012-02-21 07:33:52 51°14.218 2°55.343 5.2 279 2.9 102910 44
2012-02-21 07:33:57 51°14.23 2°55.331 6.1 320 2.9 102910 44
2012-02-21 07:34:02 51°14.243 2°55.32 6.3 283 3 102920 43
2012-02-21 07:34:07 51°14.256 2°55.308 6.1 243 3 102920 43
2012-02-21 07:34:12 51°14.268 2°55.296 5.7 281 3 102920 43
2012-02-21 07:34:17 51°14.281 2°55.285 6.4 243 3 102920 43
2012-02-21 07:34:22 51°14.294 2°55.273 8.9 281 3 102920 45
2012-02-21 07:34:27 51°14.307 2°55.262 7.3 252 3 102920 45
2012-02-21 07:34:32 51°14.32 2°55.249 7.6 248 3 102920 45
2012-02-21 07:34:37 51°14.333 2°55.238 5.6 244 3 102920 45
2012-02-21 07:34:42 51°14.346 2°55.226 7.6 282 3 102920 45
2012-02-21 07:34:47 51°14.359 2°55.214 7.6 247 3 102920 45
2012-02-21 07:34:52 51°14.373 2°55.201 5.9 25 3.1 102920 45
2012-02-21 07:34:57 51°14.386 2°55.189 6 244 3.1 102920 45
2012-02-21 07:35:02 51°14.399 2°55.176 6.4 281 3.1 102930 45
2012-02-21 07:35:07 51°14.412 2°55.162 6.8 236 3.1 102930 45
2012-02-21 07:35:12 51°14.425 2°55.148 7.4 280 3.1 102920 44
2012-02-21 07:35:17 51°14.438 2°55.135 7.8 244 3.1 102920 44
2012-02-21 07:35:22 51°14.451 2°55.121 7.3 280 3.1 102920 45
2012-02-21 07:35:27 51°14.464 2°55.106 8.3 244 3.1 102920 45
2012-02-21 07:35:32 51°14.476 2°55.091 8.3 21 3.2 102920 45
2012-02-21 07:35:37 51°14.489 2°55.075 6.4 238 3.2 102920 45
2012-02-21 07:35:42 51°14.502 2°55.06 6.5 19 3.2 102920 44
2012-02-21 07:35:47 51°14.515 2°55.044 6.5 244 3.2 102920 44
2012-02-21 07:35:51 51°14.525 2°55.032 8.3 282 3.2 102930 45
2012-02-21 07:35:56 51°14.538 2°55.016 8.7 245 3.2 102930 45
2012-02-21 07:36:01 51°14.55 2°54.997 4.4 27 3.2 102920 45
2012-02-21 07:36:06 51°14.563 2°54.979 8.4 242 3.2 102920 45
2012-02-21 07:36:11 51°14.575 2°54.961 8.3 285 3.2 102920 44
2012-02-21 07:36:15 51°14.586 2°54.947 8.4 247 3.2 102920 44
2012-02-21 07:36:20 51°14.598 2°54.93 8.2 247 3.2 102910 45
2012-02-21 07:36:25 51°14.612 2°54.913 7.4 246 3.2 102910 45
2012-02-21 07:36:30 51°14.625 2°54.897 7.9 23 3.2 102920 45
2012-02-21 07:36:35 51°14.639 2°54.879 8.1 245 3.2 102920 45
2012-02-21 07:36:39 51°14.649 2°54.866 7.9 288 3.2 102920 44
2012-02-21 07:36:44 51°14.662 2°54.848 7.8 242 3.2 102920 44
2012-02-21 07:36:49 51°14.676 2°54.831 8.6 288 3.2 102920 44
2012-02-21 07:36:54 51°14.689 2°54.815 9.9 247 3.2 102920 44
2012-02-21 07:36:59 51°14.703 2°54.8 7.9 21 3.2 102910 44
2012-02-21 07:37:03 51°14.715 2°54.788 7.9 246 3.2 102910 44
2012-02-21 07:37:08 51°14.729 2°54.773 8 17 3.2 102920 45
2012-02-21 07:37:14 51°14.746 2°54.756 8.3 246 3.2 102920 45
2012-02-21 07:37:19 51°14.76 2°54.741 7.7 284 3.3 102920 44
2012-02-21 07:37:23 51°14.771 2°54.729 8 246 3.3 102920 44
2012-02-21 07:37:28 51°14.785 2°54.713 8.4 23 3.3 102920 45
2012-02-21 07:37:34 51°14.802 2°54.695 8.3 247 3.3 102920 45
2012-02-21 07:37:39 51°14.815 2°54.679 8.3 287 3.3 102920 44
2012-02-21 07:37:45 51°14.832 2°54.66 8 247 3.3 102920 44
2012-02-21 07:37:51 51°14.849 2°54.642 8.3 280 3.3 102920 44
2012-02-21 07:37:56 51°14.862 2°54.626 7.7 249 3.3 102920 44
2012-02-21 07:38:02 51°14.879 2°54.609 7.3 283 3.3 102910 45
2012-02-21 07:38:07 51°14.894 2°54.594 7.7 245 3.3 102910 45
2012-02-21 07:38:12 51°14.908 2°54.579 7.7 280 3.3 102920 44
2012-02-21 07:38:17 51°14.923 2°54.566 6.9 250 3.3 102920 44
2012-02-21 07:38:22 51°14.938 2°54.553 6.6 280 3.3 102910 44
2012-02-21 07:38:27 51°14.952 2°54.54 6.2 248 3.3 102910 44
2012-02-21 07:38:32 51°14.967 2°54.527 6.8 22 3.3 102920 44
2012-02-21 07:38:37 51°14.982 2°54.515 6.8 248 3.3 102920 44
2012-02-21 07:38:42 51°14.996 2°54.502 6.4 249 3.3 102920 44
2012-02-21 07:38:47 51°15.011 2°54.488 7.2 246 3.3 102920 44
2012-02-21 07:38:51 51°15.022 2°54.477 6.8 285 3.3 102920 44
2012-02-21 07:38:56 51°15.037 2°54.464 7.6 243 3.3 102920 44
2012-02-21 07:39:01 51°15.051 2°54.449 6.9 23 3.3 102910 45
2012-02-21 07:39:05 51°15.062 2°54.437 8.3 247 3.3 102910 45
2012-02-21 07:39:10 51°15.076 2°54.422 7.4 246 3.3 102910 45
2012-02-21 07:39:15 51°15.09 2°54.406 7.7 244 3.3 102910 45
2012-02-21 07:39:19 51°15.1 2°54.393 7.5 284 3.3 102920 44
2012-02-21 07:39:24 51°15.114 2°54.378 8.5 244 3.3 102920 44
2012-02-21 07:39:29 51°15.128 2°54.363 7.9 24 3.3 102910 45
2012-02-21 07:39:34 51°15.142 2°54.348 6.9 247 3.3 102910 45
2012-02-21 07:39:39 51°15.156 2°54.332 7.7 287 3.3 102920 44
2012-02-21 07:39:43 51°15.167 2°54.321 6.6 247 3.3 102920 44
2012-02-21 07:39:48 51°15.181 2°54.307 7.5 19 3.3 102910 45
2012-02-21 07:39:54 51°15.198 2°54.294 6.9 251 3.3 102910 45
2012-02-21 07:39:59 51°15.213 2°54.283 7.1 282 3.3 102910 44
2012-02-21 07:40:03 51°15.225 2°54.275 6.3 252 3.3 102910 44
2012-02-21 07:40:08 51°15.24 2°54.265 6.1 281 3.3 102920 45
2012-02-21 07:40:14 51°15.258 2°54.254 6.4 250 3.3 102920 45
2012-02-21 07:40:19 51°15.273 2°54.245 6.9 250 3.4 102920 45
2012-02-21 07:40:23 51°15.285 2°54.235 7.1 243 3.4 102920 45
2012-02-21 07:40:28 51°15.299 2°54.225 7.3 252 3.4 102920 44
2012-02-21 07:40:34 51°15.316 2°54.21 6.7 252 3.4 102920 44
2012-02-21 07:40:39 51°15.331 2°54.199 8.3 280 3.3 102920 44
2012-02-21 07:40:43 51°15.343 2°54.19 7 247 3.3 102920 44
2012-02-21 07:40:48 51°15.357 2°54.181 8.1 280 3.4 102910 45
2012-02-21 07:40:54 51°15.375 2°54.168 7.1 252 3.4 102910 45
2012-02-21 07:40:59 51°15.39 2°54.16 8.2 256 3.4 102920 45
2012-02-21 07:41:03 51°15.403 2°54.155 7.6 257 3.4 102920 45
2012-02-21 07:41:08 51°15.418 2°54.148 7.1 288 3.4 102910 45
2012-02-21 07:41:14 51°15.437 2°54.142 6.7 261 3.4 102910 45
2012-02-21 07:41:19 51°15.453 2°54.138 5.6 285 3.4 102920 45
2012-02-21 07:41:23 51°15.465 2°54.136 5 262 3.4 102920 45
2012-02-21 07:41:28 51°15.481 2°54.134 5.6 262 3.4 102910 43
2012-02-21 07:41:34 51°15.5 2°54.131 4.2 263 3.4 102910 43
2012-02-21 07:41:39 51°15.516 2°54.131 5.4 280 3.4 102920 44
2012-02-21 07:41:43 51°15.528 2°54.131 4.7 262 3.4 102920 44
2012-02-21 07:41:48 51°15.544 2°54.131 4.1 264 3.5 102920 44
2012-02-21 07:41:54 51°15.563 2°54.132 3.7 266 3.5 102920 44
2012-02-21 07:41:59 51°15.579 2°54.134 3 285 3.5 102930 45
2012-02-21 07:42:03 51°15.591 2°54.135 4 266 3.5 102930 45
2012-02-21 07:42:08 51°15.607 2°54.138 3.7 270 3.5 102910 44
2012-02-21 07:42:14 51°15.625 2°54.144 3.4 40 3.5 102910 44
2012-02-21 07:42:19 51°15.64 2°54.149 2.7 280 3.5 102920 44
2012-02-21 07:42:23 51°15.652 2°54.154 3.7 267 3.5 102920 44
2012-02-21 07:42:28 51°15.667 2°54.16 3.1 27 3.5 102920 44
2012-02-21 07:42:34 51°15.685 2°54.167 3.9 270 3.5 102920 44
2012-02-21 07:42:39 51°15.7 2°54.176 3.3 76 3.5 102920 44
2012-02-21 07:42:43 51°15.712 2°54.181 3.9 31 3.5 102920 44
2012-02-21 07:42:48 51°15.727 2°54.187 2.7 281 3.5 102910 46
2012-02-21 07:42:54 51°15.744 2°54.196 3.2 40 3.5 102910 46
2012-02-21 07:42:59 51°15.759 2°54.203 3.4 21 3.5 102920 44
2012-02-21 07:43:03 51°15.771 2°54.208 2.6 266 3.5 102920 44
2012-02-21 07:43:09 51°15.789 2°54.217 2.8 269 3.5 102910 44
2012-02-21 07:43:14 51°15.804 2°54.225 3.3 30 3.5 102910 44
2012-02-21 07:43:19 51°15.819 2°54.231 3 270 3.5 102910 44
2012-02-21 07:43:23 51°15.831 2°54.235 2.9 40 3.5 102910 44
2012-02-21 07:43:29 51°15.85 2°54.243 1.6 269 3.5 102920 45
2012-02-21 07:43:34 51°15.865 2°54.247 3.2 42 3.5 102920 45
2012-02-21 07:43:39 51°15.88 2°54.253 1.8 285 3.5 102910 44
2012-02-21 07:43:43 51°15.893 2°54.256 2.4 267 3.5 102910 44
2012-02-21 07:43:48 51°15.908 2°54.261 2.7 73 3.5 102910 45
2012-02-21 07:43:54 51°15.926 2°54.267 2.5 262 3.5 102910 45
2012-02-21 07:43:59 51°15.942 2°54.273 3.2 286 3.5 102920 44
2012-02-21 07:44:03 51°15.954 2°54.276 4.9 38 3.5 102920 44
2012-02-21 07:44:08 51°15.969 2°54.282 5 22 3.5 102910 43
2012-02-21 07:44:13 51°15.984 2°54.287 3.5 269 3.5 102910 43
2012-02-21 07:44:19 51°16.002 2°54.294 3.1 81 3.5 102910 44
2012-02-21 07:44:23 51°16.015 2°54.299 1.9 268 3.5 102910 44
2012-02-21 07:44:28 51°16.029 2°54.305 2 266 3.5 102900 43
2012-02-21 07:44:34 51°16.046 2°54.31 3.7 268 3.5 102900 43
2012-02-21 07:44:39 51°16.059 2°54.314 3.9 286 3.5 102910 46
2012-02-21 07:44:43 51°16.069 2°54.315 4.2 270 3.5 102910 46
2012-02-21 07:44:48 51°16.08 2°54.318 5.3 288 3.5 102900 42
2012-02-21 07:44:54 51°16.092 2°54.317 4.6 326 3.5 102900 42
2012-02-21 07:44:59 51°16.102 2°54.317 5.3 84 3.5 102900 45
2012-02-21 07:45:03 51°16.109 2°54.317 5.6 38 3.5 102900 45
2012-02-21 07:45:08 51°16.118 2°54.315 5.9 81 3.5 102900 44
2012-02-21 07:45:14 51°16.128 2°54.314 5 269 3.5 102900 44
2012-02-21 07:45:19 51°16.136 2°54.313 5.7 22 3.5 102900 46
2012-02-21 07:45:23 51°16.142 2°54.312 5.5 42 3.5 102900 46
2012-02-21 07:45:28 51°16.15 2°54.311 4.4 23 3.5 102900 45
2012-02-21 07:45:34 51°16.159 2°54.311 6 38 3.5 102900 45
2012-02-21 07:45:39 51°16.166 2°54.31 5.6 79 3.5 102900 44
2012-02-21 07:45:43 51°16.172 2°54.31 5.3 35 3.5 102900 44
2012-02-21 07:45:49 51°16.181 2°54.31 5.2 76 3.5 102900 45
2012-02-21 07:45:54 51°16.188 2°54.311 5.9 35 3.5 102900 45
2012-02-21 07:45:59 51°16.195 2°54.312 5.7 26 3.5 102910 45
2012-02-21 07:46:03 51°16.2 2°54.313 5.2 36 3.5 102910 45
2012-02-21 07:46:09 51°16.209 2°54.314 4.8 24 3.5 102910 44
2012-02-21 07:46:14 51°16.216 2°54.317 5.1 32 3.5 102910 44
2012-02-21 07:46:19 51°16.223 2°54.319 5.3 18 3.5 102910 45
2012-02-21 07:46:23 51°16.228 2°54.321 4.9 33 3.5 102910 45
2012-02-21 07:46:28 51°16.233 2°54.322 5.1 26 3.5 102910 45
2012-02-21 07:46:34 51°16.24 2°54.324 5.6 36 3.5 102910 45
2012-02-21 07:46:39 51°16.244 2°54.326 6.7 25 3.5 102910 45
2012-02-21 07:46:43 51°16.248 2°54.326 7 30 3.5 102910 45
2012-02-21 07:46:48 51°16.251 2°54.328 6.1 19 3.5 102910 44
2012-02-21 07:46:54 51°16.255 2°54.329 6.6 32 3.5 102910 44
2012-02-21 07:46:59 51°16.257 2°54.329 6.3 23 3.5 102910 45
2012-02-21 07:47:03 51°16.258 2°54.329 7.7 32 3.5 102910 45
2012-02-21 07:47:09 51°16.26 2°54.329 8.6 20 3.5 102910 44
2012-02-21 07:47:14 51°16.26 2°54.329 8.6 34 3.5 102910 44
2012-02-21 07:47:19 51°16.26 2°54.328 8.3 22 3.5 102910 44
2012-02-21 07:47:23 51°16.26 2°54.327 7 32 3.5 102910 44
2012-02-21 07:47:28 51°16.26 2°54.327 7 24 3.4 102910 44
2012-02-21 07:47:34 51°16.261 2°54.326 7.6 33 3.4 102910 44
2012-02-21 07:47:39 51°16.261 2°54.326 6.7 21 3.4 102910 45
2012-02-21 07:47:43 51°16.261 2°54.325 6.8 33 3.4 102910 45
2012-02-21 07:47:49 51°16.262 2°54.324 7.7 23 3.4 102900 44
2012-02-21 07:47:54 51°16.262 2°54.324 7.9 35 3.4 102900 44
2012-02-21 07:47:59 51°16.262 2°54.323 8.4 25 3.4 102910 44
2012-02-21 07:48:03 51°16.262 2°54.322 8.4 36 3.4 102910 44
2012-02-21 07:48:08 51°16.262 2°54.322 7 25 3.4 102910 45
2012-02-21 07:48:14 51°16.263 2°54.322 8.5 38 3.4 102910 45
2012-02-21 07:48:19 51°16.263 2°54.321 8.9 21 3.4 102910 44
2012-02-21 07:48:23 51°16.263 2°54.32 7.9 31 3.4 102910 44
2012-02-21 07:48:28 51°16.263 2°54.32 7.9 23 3.4 102910 44
2012-02-21 07:48:34 51°16.264 2°54.319 8 29 3.4 102910 44
2012-02-21 07:48:39 51°16.264 2°54.319 7.5 23 3.4 102910 45
2012-02-21 07:48:43 51°16.264 2°54.318 8 30 3.4 102910 45
2012-02-21 07:48:48 51°16.265 2°54.317 7.5 18 3.4 102920 44
2012-02-21 07:48:54 51°16.265 2°54.316 7.4 37 3.4 102920 44
2012-02-21 07:48:59 51°16.265 2°54.315 6.3 20 3.4 102910 45
2012-02-21 07:49:03 51°16.265 2°54.314 7.3 35 3.4 102910 45
2012-02-21 07:49:09 51°16.266 2°54.314 7.8 27 3.4 102910 44
2012-02-21 07:49:14 51°16.266 2°54.313 7.6 35 3.4 102910 44
2012-02-21 07:49:19 51°16.266 2°54.311 8.1 21 3.4 102910 45
2012-02-21 07:49:23 51°16.266 2°54.31 8.7 270 3.4 102910 45
2012-02-21 07:49:28 51°16.266 2°54.309 8.2 19 3.4 102910 44
2012-02-21 07:49:34 51°16.266 2°54.307 7.6 268 3.4 102910 44
2012-02-21 07:49:39 51°16.266 2°54.306 7.6 268 3.4 102920 46
2012-02-21 07:49:43 51°16.266 2°54.306 6.2 268 3.4 102920 46
2012-02-21 07:49:49 51°16.266 2°54.303 7.2 270 3.4 102920 44
2012-02-21 07:49:54 51°16.266 2°54.302 5.8 267 3.4 102920 44
2012-02-21 07:49:59 51°16.266 2°54.302 6.4 267 3.4 102920 44
2012-02-21 07:50:03 51°16.267 2°54.301 6.3 270 3.4 102920 44
2012-02-21 07:50:09 51°16.267 2°54.3 5 264 3.4 102920 46
2012-02-21 07:50:14 51°16.267 2°54.299 5.5 265 3.4 102920 46
2012-02-21 07:50:19 51°16.267 2°54.298 5.2 264 3.4 102920 45
2012-02-21 07:50:23 51°16.266 2°54.297 5.8 265 3.4 102920 45
2012-02-21 07:50:29 51°16.266 2°54.295 6.5 264 3.4 102930 46
2012-02-21 07:50:34 51°16.266 2°54.294 5.4 267 3.4 102930 46
2012-02-21 07:50:39 51°16.266 2°54.293 8 263 3.4 102930 45
2012-02-21 07:50:43 51°16.266 2°54.293 9 263 3.4 102930 45
2012-02-21 07:50:48 51°16.266 2°54.291 5.1 264 3.4 102920 44
2012-02-21 07:50:54 51°16.266 2°54.29 8 262 3.4 102920 44
2012-02-21 07:50:59 51°16.266 2°54.289 7.9 262 3.4 102920 44
2012-02-21 07:51:03 51°16.266 2°54.288 9 261 3.4 102920 44
2012-02-21 07:51:08 51°16.265 2°54.287 8.1 261 3.4 102930 45
2012-02-21 07:51:14 51°16.265 2°54.286 6.4 266 3.4 102930 45
2012-02-21 07:51:19 51°16.265 2°54.285 6.3 263 3.4 102930 45
2012-02-21 07:51:23 51°16.265 2°54.284 7.7 261 3.4 102930 45
2012-02-21 07:51:28 51°16.264 2°54.283 6.8 262 3.4 102930 46
2012-02-21 07:51:34 51°16.264 2°54.282 7.1 260 3.4 102930 46
2012-02-21 07:51:39 51°16.264 2°54.282 6.5 264 3.4 102920 44
2012-02-21 07:51:43 51°16.264 2°54.281 8.9 259 3.4 102920 44
2012-02-21 07:51:48 51°16.264 2°54.28 6.5 261 3.4 102930 46
2012-02-21 07:51:54 51°16.263 2°54.278 8.5 262 3.4 102930 46
2012-02-21 07:51:59 51°16.263 2°54.276 8.7 261 3.4 102930 45
2012-02-21 07:52:03 51°16.263 2°54.276 8.5 261 3.4 102930 45
2012-02-21 07:52:08 51°16.263 2°54.275 7.2 262 3.4 102930 44
2012-02-21 07:52:14 51°16.263 2°54.275 7.8 261 3.4 102930 44
2012-02-21 07:52:19 51°16.263 2°54.274 9.9 260 3.4 102930 44
2012-02-21 07:52:23 51°16.263 2°54.273 9 262 3.4 102930 44
2012-02-21 07:52:29 51°16.263 2°54.272 10.2 261 3.5 102920 44
2012-02-21 07:52:34 51°16.262 2°54.272 10.5 261 3.5 102920 44
2012-02-21 07:52:39 51°16.262 2°54.271 7.2 260 3.5 102930 44
2012-02-21 07:52:43 51°16.262 2°54.27 9.2 260 3.5 102930 44
2012-02-21 07:52:49 51°16.262 2°54.269 8.3 261 3.5 102920 45
2012-02-21 07:52:54 51°16.261 2°54.268 7.7 261 3.5 102920 45
2012-02-21 07:52:59 51°16.261 2°54.267 7.7 259 3.5 102930 45
2012-02-21 07:53:03 51°16.261 2°54.267 8.7 261 3.5 102930 45
2012-02-21 07:53:08 51°16.261 2°54.266 8.1 259 3.5 102920 44
2012-02-21 07:53:14 51°16.26 2°54.265 6.5 261 3.5 102920 44
2012-02-21 07:53:19 51°16.26 2°54.264 7 261 3.5 102930 45
2012-02-21 07:53:23 51°16.26 2°54.264 8.2 262 3.5 102930 45
2012-02-21 07:53:28 51°16.26 2°54.264 8.1 262 3.5 102930 46
2012-02-21 07:53:33 51°16.26 2°54.264 6.7 260 3.5 102930 46
2012-02-21 07:53:39 51°16.26 2°54.262 6.6 263 3.5 102930 46
2012-02-21 07:53:43 51°16.26 2°54.261 8.1 261 3.5 102930 46
2012-02-21 07:53:49 51°16.261 2°54.258 8.2 261 3.5 102920 44
2012-02-21 07:53:54 51°16.262 2°54.255 8.5 255 3.5 102920 44
2012-02-21 07:53:59 51°16.264 2°54.251 7.8 254 3.5 102920 46
2012-02-21 07:54:03 51°16.266 2°54.246 6.7 260 3.5 102920 46
2012-02-21 07:54:08 51°16.268 2°54.24 8.1 259 3.5 102930 44
2012-02-21 07:54:14 51°16.272 2°54.231 8.4 252 3.5 102930 44
2012-02-21 07:54:19 51°16.276 2°54.223 8.7 253 3.5 102920 45
2012-02-21 07:54:23 51°16.279 2°54.215 8.8 250 3.5 102920 45
2012-02-21 07:54:29 51°16.284 2°54.202 9.1 248 3.5 102920 46
2012-02-21 07:54:34 51°16.289 2°54.189 9.4 247 3.5 102920 46
2012-02-21 07:54:39 51°16.294 2°54.177 9.2 250 3.5 102920 46
2012-02-21 07:54:43 51°16.298 2°54.166 7.8 247 3.5 102920 46
2012-02-21 07:54:48 51°16.304 2°54.152 9.5 18 3.5 102920 45
2012-02-21 07:54:54 51°16.312 2°54.135 9.1 250 3.5 102920 45
2012-02-21 07:54:59 51°16.318 2°54.119 8.9 246 3.5 102920 45
2012-02-21 07:55:03 51°16.324 2°54.107 9.9 248 3.5 102920 45
2012-02-21 07:55:08 51°16.331 2°54.091 8.3 22 3.5 102930 46
2012-02-21 07:55:14 51°16.34 2°54.071 8.5 245 3.5 102930 46
2012-02-21 07:55:19 51°16.348 2°54.054 9.2 22 3.5 102910 44
2012-02-21 07:55:23 51°16.354 2°54.04 8.8 246 3.5 102910 44
2012-02-21 07:55:28 51°16.363 2°54.023 10.5 248 3.5 102920 46
2012-02-21 07:55:33 51°16.372 2°54.005 9.7 243 3.5 102920 46
2012-02-21 07:55:39 51°16.383 2°53.984 8.6 23 3.5 102880 45
2012-02-21 07:55:43 51°16.391 2°53.969 9.2 245 3.5 102880 45
2012-02-21 07:55:48 51°16.401 2°53.95 8.8 21 3.5 102890 46
2012-02-21 07:55:54 51°16.413 2°53.927 9.4 242 3.5 102890 46
2012-02-21 07:55:59 51°16.424 2°53.908 8.4 18 3.5 102880 46
2012-02-21 07:56:03 51°16.433 2°53.894 9.5 242 3.5 102880 46
2012-02-21 07:56:08 51°16.445 2°53.875 10.1 19 3.5 102890 45
2012-02-21 07:56:14 51°16.458 2°53.852 8.9 241 3.5 102890 45
2012-02-21 07:56:19 51°16.469 2°53.83 8.5 25 3.5 102880 45
2012-02-21 07:56:23 51°16.477 2°53.813 8.4 237 3.5 102880 45
2012-02-21 07:56:29 51°16.49 2°53.788 10.4 20 3.5 102890 45
2012-02-21 07:56:34 51°16.5 2°53.765 8.1 241 3.5 102890 45
2012-02-21 07:56:39 51°16.51 2°53.743 10 25 3.6 102890 45
2012-02-21 07:56:43 51°16.518 2°53.725 8.7 241 3.6 102890 45
2012-02-21 07:56:48 51°16.528 2°53.703 9.6 20 3.6 102880 45
2012-02-21 07:56:54 51°16.54 2°53.676 8.6 241 3.6 102880 45
2012-02-21 07:56:59 51°16.551 2°53.654 8.8 23 3.6 102880 46
2012-02-21 07:57:03 51°16.559 2°53.636 10.2 241 3.6 102880 46
2012-02-21 07:57:09 51°16.572 2°53.611 9.7 21 3.6 102880 45
2012-02-21 07:57:14 51°16.584 2°53.589 10.5 242 3.6 102880 45
2012-02-21 07:57:19 51°16.595 2°53.569 7.9 18 3.6 102890 45
2012-02-21 07:57:23 51°16.604 2°53.552 7.4 242 3.6 102890 45
2012-02-21 07:57:28 51°16.616 2°53.532 8.7 19 3.6 102880 44
2012-02-21 07:57:34 51°16.629 2°53.508 8.3 242 3.6 102880 44
2012-02-21 07:57:39 51°16.642 2°53.488 9 18 3.6 102880 45
2012-02-21 07:57:43 51°16.651 2°53.472 10.5 244 3.6 102880 45
2012-02-21 07:57:48 51°16.663 2°53.452 9.8 24 3.6 102880 45
2012-02-21 07:57:54 51°16.677 2°53.429 10.5 242 3.6 102880 45
2012-02-21 07:57:59 51°16.689 2°53.409 9.7 23 3.6 102890 46
2012-02-21 07:58:03 51°16.698 2°53.392 7.9 242 3.6 102890 46
2012-02-21 07:58:08 51°16.709 2°53.372 10.7 17 3.6 102880 45
2012-02-21 07:58:13 51°16.721 2°53.352 10.4 241 3.6 102880 45
2012-02-21 07:58:19 51°16.734 2°53.328 11 20 3.6 102890 45
2012-02-21 07:58:23 51°16.743 2°53.312 10.7 242 3.6 102890 45
2012-02-21 07:58:29 51°16.757 2°53.287 10.9 20 3.6 102890 45
2012-02-21 07:58:34 51°16.768 2°53.266 8.7 242 3.6 102890 45
2012-02-21 07:58:39 51°16.779 2°53.246 8.7 19 3.6 102880 45
2012-02-21 07:58:43 51°16.788 2°53.229 10.3 240 3.6 102880 45
2012-02-21 07:58:48 51°16.798 2°53.208 9.2 18 3.6 102890 45
2012-02-21 07:58:54 51°16.811 2°53.182 11.3 241 3.6 102890 45
2012-02-21 07:58:59 51°16.821 2°53.161 11 20 3.6 102880 46
2012-02-21 07:59:03 51°16.829 2°53.144 10.7 241 3.6 102880 46
2012-02-21 07:59:09 51°16.841 2°53.117 8.8 23 3.6 102880 45
2012-02-21 07:59:14 51°16.85 2°53.095 10 238 3.6 102880 45
2012-02-21 07:59:19 51°16.86 2°53.073 10.3 26 3.6 102890 46
2012-02-21 07:59:23 51°16.867 2°53.055 9.8 242 3.6 102890 46
2012-02-21 07:59:29 51°16.878 2°53.03 10 20 3.7 102880 45
2012-02-21 07:59:34 51°16.889 2°53.009 10.2 240 3.7 102880 45
2012-02-21 07:59:39 51°16.898 2°52.988 9.7 23 3.6 102880 45
2012-02-21 07:59:43 51°16.907 2°52.972 9.1 245 3.6 102880 45
2012-02-21 07:59:48 51°16.917 2°52.951 10.8 24 3.7 102880 46
2012-02-21 07:59:54 51°16.929 2°52.927 11 242 3.7 102880 46
2012-02-21 07:59:59 51°16.94 2°52.906 8.4 24 3.7 102890 45
2012-02-21 08:00:03 51°16.948 2°52.89 10.1 242 3.7 102890 45
2012-02-21 08:00:08 51°16.959 2°52.869 9.5 19 3.7 102880 44
2012-02-21 08:00:14 51°16.972 2°52.845 8.1 242 3.7 102880 44
2012-02-21 08:00:19 51°16.983 2°52.824 9.1 20 3.7 102890 45
2012-02-21 08:00:23 51°16.992 2°52.808 8.5 242 3.7 102890 45
2012-02-21 08:00:28 51°17.003 2°52.788 8.6 25 3.7 102890 44
2012-02-21 08:00:34 51°17.016 2°52.763 8.6 242 3.7 102890 44
2012-02-21 08:00:39 51°17.027 2°52.743 10.1 22 3.7 102890 45
2012-02-21 08:00:43 51°17.037 2°52.728 10.2 244 3.7 102890 45
2012-02-21 08:00:49 51°17.052 2°52.706 8.6 22 3.7 102890 45
2012-02-21 08:00:54 51°17.064 2°52.689 8.9 246 3.7 102890 45
2012-02-21 08:00:59 51°17.077 2°52.672 8.7 19 3.7 102880 45
2012-02-21 08:01:03 51°17.087 2°52.659 10.1 246 3.7 102880 45
2012-02-21 08:01:08 51°17.1 2°52.643 9.7 246 3.7 102890 46
2012-02-21 08:01:14 51°17.116 2°52.624 8.5 245 3.7 102890 46
2012-02-21 08:01:19 51°17.129 2°52.609 7.5 20 3.7 102890 46
2012-02-21 08:01:23 51°17.14 2°52.596 7.8 247 3.7 102890 46
2012-02-21 08:01:29 51°17.156 2°52.578 7.7 246 3.7 102900 45
2012-02-21 08:01:34 51°17.169 2°52.561 7.4 244 3.7 102900 45
2012-02-21 08:01:39 51°17.181 2°52.544 8.6 22 3.7 102900 44
2012-02-21 08:01:43 51°17.191 2°52.53 8.8 248 3.7 102900 44
2012-02-21 08:01:49 51°17.207 2°52.51 7 26 3.7 102890 46
2012-02-21 08:01:54 51°17.219 2°52.492 8.5 245 3.7 102890 46
2012-02-21 08:01:59 51°17.231 2°52.475 8.7 20 3.7 102930 45
2012-02-21 08:02:03 51°17.241 2°52.46 9.7 246 3.7 102930 45
2012-02-21 08:02:08 51°17.253 2°52.441 7.7 20 3.7 102900 45
2012-02-21 08:02:14 51°17.267 2°52.419 9.1 245 3.7 102900 45
2012-02-21 08:02:19 51°17.28 2°52.401 9.4 19 3.7 102890 45
2012-02-21 08:02:23 51°17.289 2°52.387 8.7 244 3.7 102890 45
2012-02-21 08:02:28 51°17.302 2°52.369 7.7 23 3.7 102900 46
2012-02-21 08:02:34 51°17.317 2°52.348 9.6 247 3.7 102900 46
2012-02-21 08:02:39 51°17.329 2°52.33 9.3 22 3.7 102900 44
2012-02-21 08:02:43 51°17.339 2°52.316 7.7 245 3.7 102900 44
2012-02-21 08:02:48 51°17.351 2°52.298 7.9 25 3.7 102900 45
2012-02-21 08:02:54 51°17.366 2°52.276 8.9 243 3.7 102900 45
2012-02-21 08:02:59 51°17.378 2°52.258 8.1 21 3.7 102880 44
2012-02-21 08:03:03 51°17.388 2°52.243 7.6 241 3.7 102880 44
2012-02-21 08:03:08 51°17.4 2°52.225 8.1 26 3.7 102900 46
2012-02-21 08:03:14 51°17.415 2°52.202 7.1 243 3.7 102900 46
2012-02-21 08:03:19 51°17.427 2°52.184 7.9 22 3.7 102900 45
2012-02-21 08:03:23 51°17.436 2°52.169 7.2 242 3.7 102900 45
2012-02-21 08:03:29 51°17.451 2°52.148 6.8 26 3.7 102890 45
2012-02-21 08:03:34 51°17.464 2°52.13 8.4 243 3.7 102890 45
2012-02-21 08:03:39 51°17.476 2°52.112 7.4 19 3.7 102890 45
2012-02-21 08:03:43 51°17.486 2°52.098 7.2 243 3.7 102890 45
2012-02-21 08:03:49 51°17.501 2°52.076 7.7 23 3.7 102900 45
2012-02-21 08:03:54 51°17.513 2°52.059 7.2 242 3.7 102900 45
2012-02-21 08:03:59 51°17.526 2°52.041 7.6 23 3.7 102890 45
2012-02-21 08:04:03 51°17.536 2°52.027 8.2 244 3.7 102890 45
2012-02-21 08:04:09 51°17.551 2°52.006 7.7 25 3.7 102900 45
2012-02-21 08:04:14 51°17.563 2°51.99 9.1 244 3.7 102900 45
2012-02-21 08:04:19 51°17.576 2°51.972 7.8 22 3.7 102900 46
2012-02-21 08:04:23 51°17.585 2°51.959 8 245 3.7 102900 46
2012-02-21 08:04:28 51°17.598 2°51.942 9.1 25 3.7 102900 45
2012-02-21 08:04:34 51°17.612 2°51.921 8.1 241 3.7 102900 45
2012-02-21 08:04:39 51°17.625 2°51.904 8.1 246 3.7 102900 46
2012-02-21 08:04:43 51°17.635 2°51.891 9.6 244 3.7 102900 46
2012-02-21 08:04:48 51°17.648 2°51.874 8.7 21 3.7 102890 45
2012-02-21 08:04:54 51°17.663 2°51.855 9.7 244 3.7 102890 45
2012-02-21 08:04:59 51°17.675 2°51.837 8 24 3.8 102890 45
2012-02-21 08:05:03 51°17.685 2°51.824 8.4 245 3.8 102890 45
2012-02-21 08:05:08 51°17.698 2°51.807 8.4 246 3.8 102890 46
2012-02-21 08:05:14 51°17.713 2°51.787 10.2 246 3.8 102890 46
2012-02-21 08:05:19 51°17.725 2°51.769 9.8 23 3.8 102900 45
2012-02-21 08:05:23 51°17.735 2°51.754 10.8 244 3.8 102900 45
2012-02-21 08:05:29 51°17.749 2°51.732 9.7 22 3.8 102890 45
2012-02-21 08:05:34 51°17.761 2°51.714 8.6 243 3.8 102890 45
2012-02-21 08:05:39 51°17.772 2°51.695 10.3 18 3.8 102890 45
2012-02-21 08:05:43 51°17.781 2°51.679 8.7 242 3.8 102890 45
2012-02-21 08:05:48 51°17.793 2°51.66 10.5 22 3.8 102890 46
2012-02-21 08:05:54 51°17.806 2°51.636 10 245 3.8 102890 46
2012-02-21 08:05:59 51°17.818 2°51.618 9.7 25 3.8 102890 46
2012-02-21 08:06:03 51°17.827 2°51.602 8.3 244 3.8 102890 46
2012-02-21 08:06:09 51°17.841 2°51.579 8.3 23 3.8 102890 45
2012-02-21 08:06:14 51°17.854 2°51.561 8.1 246 3.8 102890 45
2012-02-21 08:06:19 51°17.866 2°51.544 8.1 247 3.8 102880 46
2012-02-21 08:06:23 51°17.876 2°51.53 8.9 246 3.8 102880 46
2012-02-21 08:06:29 51°17.891 2°51.509 9.3 245 3.8 102890 45
2012-02-21 08:06:34 51°17.904 2°51.492 8.5 243 3.8 102890 45
2012-02-21 08:06:39 51°17.916 2°51.473 10 23 3.8 102890 46
2012-02-21 08:06:43 51°17.925 2°51.457 10.1 244 3.8 102890 46
2012-02-21 08:06:48 51°17.937 2°51.438 10.7 18 3.8 102890 46
2012-02-21 08:06:54 51°17.951 2°51.415 8.9 243 3.8 102890 46
2012-02-21 08:06:59 51°17.963 2°51.396 7.9 25 3.8 102880 45
2012-02-21 08:07:03 51°17.972 2°51.381 10.1 247 3.8 102880 45
2012-02-21 08:07:09 51°17.987 2°51.358 10.2 18 3.8 102890 45
2012-02-21 08:07:14 51°17.999 2°51.339 10.1 245 3.8 102890 45
2012-02-21 08:07:19 51°18.012 2°51.323 7.9 24 3.8 102880 46
2012-02-21 08:07:23 51°18.023 2°51.311 7.9 249 3.8 102880 46
2012-02-21 08:07:28 51°18.037 2°51.296 8.7 250 3.9 102890 46
2012-02-21 08:07:34 51°18.054 2°51.28 8.6 251 3.9 102890 46
2012-02-21 08:07:39 51°18.068 2°51.268 8.3 254 3.8 102890 46
2012-02-21 08:07:43 51°18.08 2°51.26 7.2 252 3.8 102890 46
2012-02-21 08:07:49 51°18.098 2°51.248 7.6 255 3.9 102880 45
2012-02-21 08:07:54 51°18.113 2°51.237 6.6 256 3.9 102880 45
2012-02-21 08:07:59 51°18.128 2°51.228 6 254 3.9 102900 45
2012-02-21 08:08:03 51°18.14 2°51.221 6.9 253 3.9 102900 45
2012-02-21 08:08:08 51°18.155 2°51.212 6.9 252 3.9 102900 45
2012-02-21 08:08:14 51°18.173 2°51.201 7.8 255 3.9 102900 45
2012-02-21 08:08:19 51°18.188 2°51.192 7.5 250 3.9 102890 46
2012-02-21 08:08:23 51°18.201 2°51.186 8 256 3.9 102890 46
2012-02-21 08:08:29 51°18.219 2°51.176 7 256 3.9 102900 45
2012-02-21 08:08:34 51°18.235 2°51.167 7.3 253 3.9 102900 45
2012-02-21 08:08:39 51°18.25 2°51.158 7.7 258 3.9 102900 46
2012-02-21 08:08:43 51°18.262 2°51.152 6.5 258 3.9 102900 46
2012-02-21 08:08:48 51°18.278 2°51.145 7.6 255 3.9 102900 46
2012-02-21 08:08:54 51°18.296 2°51.136 7 255 3.9 102900 46
2012-02-21 08:08:59 51°18.311 2°51.128 7.2 255 3.9 102900 46
2012-02-21 08:09:03 51°18.323 2°51.123 7.4 260 3.9 102900 46
2012-02-21 08:09:08 51°18.337 2°51.115 8.3 257 3.9 102900 46
2012-02-21 08:09:14 51°18.353 2°51.107 7.2 258 3.9 102900 46
2012-02-21 08:09:19 51°18.366 2°51.1 6.6 259 3.9 102900 46
2012-02-21 08:09:23 51°18.376 2°51.095 5.8 261 3.9 102900 46
2012-02-21 08:09:29 51°18.39 2°51.088 7 261 3.9 102900 46
2012-02-21 08:09:34 51°18.402 2°51.083 6.8 262 3.9 102900 46
2012-02-21 08:09:39 51°18.412 2°51.077 8 259 3.9 102910 45
2012-02-21 08:09:43 51°18.42 2°51.072 6.5 260 3.9 102910 45
2012-02-21 08:09:48 51°18.431 2°51.066 4.6 266 3.9 102910 45
2012-02-21 08:09:54 51°18.442 2°51.06 6.4 262 3.9 102910 45
2012-02-21 08:09:59 51°18.451 2°51.054 6.2 262 3.9 102910 46
2012-02-21 08:10:03 51°18.457 2°51.048 5.6 266 3.9 102910 46
2012-02-21 08:10:09 51°18.465 2°51.041 5.5 263 3.9 102900 46
2012-02-21 08:10:14 51°18.472 2°51.035 5.9 266 3.9 102900 46
2012-02-21 08:10:19 51°18.478 2°51.029 5.6 267 3.9 102910 45
2012-02-21 08:10:23 51°18.482 2°51.024 5.2 265 3.9 102910 45
2012-02-21 08:10:28 51°18.487 2°51.018 6.3 264 4 102910 45
2012-02-21 08:10:34 51°18.492 2°51.01 8.2 258 4 102910 45
2012-02-21 08:10:39 51°18.495 2°51.004 8.6 263 3.9 102900 46
2012-02-21 08:10:43 51°18.497 2°51 6.6 263 3.9 102900 46
2012-02-21 08:10:49 51°18.499 2°50.994 8.5 260 3.9 102920 45
2012-02-21 08:10:54 51°18.5 2°50.99 9.3 259 3.9 102920 45
2012-02-21 08:10:59 51°18.501 2°50.986 12.2 259 3.9 102930 45
2012-02-21 08:11:03 51°18.501 2°50.984 7.9 261 3.9 102930 45
2012-02-21 08:11:09 51°18.5 2°50.982 9.9 261 3.9 102940 45
2012-02-21 08:11:14 51°18.499 2°50.98 10.1 261 3.9 102940 45
2012-02-21 08:11:19 51°18.498 2°50.979 9.9 258 3.9 102930 45
2012-02-21 08:11:23 51°18.497 2°50.977 12.5 260 3.9 102930 45
2012-02-21 08:11:28 51°18.496 2°50.976 9.4 258 4 102930 46
2012-02-21 08:11:34 51°18.495 2°50.974 7.9 262 4 102930 46
2012-02-21 08:11:39 51°18.494 2°50.973 9.2 259 4 102930 45
2012-02-21 08:11:43 51°18.493 2°50.972 9.3 261 4 102930 45
2012-02-21 08:11:48 51°18.492 2°50.971 8.3 260 3.9 102920 46
2012-02-21 08:11:54 51°18.491 2°50.969 9.5 261 3.9 102920 46
2012-02-21 08:11:59 51°18.49 2°50.968 7.8 263 4 102930 46
2012-02-21 08:12:03 51°18.49 2°50.967 8.3 262 4 102930 46
2012-02-21 08:12:09 51°18.489 2°50.966 9.7 260 4 102930 45
2012-02-21 08:12:14 51°18.488 2°50.965 5.8 264 4 102930 45
2012-02-21 08:12:19 51°18.487 2°50.964 10 263 4 102940 45
2012-02-21 08:12:23 51°18.486 2°50.963 7.4 263 4 102940 45
2012-02-21 08:12:28 51°18.485 2°50.962 8.3 263 4 102930 46
2012-02-21 08:12:34 51°18.484 2°50.961 7.3 265 4 102930 46
2012-02-21 08:12:39 51°18.483 2°50.96 5.5 265 4 102940 46
2012-02-21 08:12:43 51°18.482 2°50.959 5.4 265 4 102940 46
2012-02-21 08:12:49 51°18.481 2°50.957 6.2 267 4 102930 45
2012-02-21 08:12:54 51°18.48 2°50.956 5.9 265 4 102930 45
2012-02-21 08:12:59 51°18.48 2°50.955 6.4 266 4 102930 46
2012-02-21 08:13:03 51°18.479 2°50.954 5.8 264 4 102930 46
2012-02-21 08:13:09 51°18.478 2°50.953 7.4 266 4 102940 46
2012-02-21 08:13:14 51°18.477 2°50.952 5.9 267 4 102940 46
2012-02-21 08:13:19 51°18.476 2°50.951 7.2 269 4 102940 46
2012-02-21 08:13:23 51°18.475 2°50.95 7.5 267 4 102940 46
2012-02-21 08:13:27 51°18.475 2°50.949 8.2 268 4 102940 45
2012-02-21 08:13:34 51°18.473 2°50.948 6.4 269 4 102940 45
2012-02-21 08:13:39 51°18.472 2°50.947 5.8 267 4 102930 46
2012-02-21 08:13:43 51°18.471 2°50.946 6.3 267 4 102930 46
2012-02-21 08:13:48 51°18.47 2°50.945 8.4 268 4 102930 46
2012-02-21 08:13:54 51°18.469 2°50.943 6.4 269 4 102930 46
2012-02-21 08:13:59 51°18.468 2°50.942 7.3 270 4 102940 46
2012-02-21 08:14:03 51°18.467 2°50.941 8.2 37 4 102940 46
2012-02-21 08:14:08 51°18.467 2°50.941 6.8 265 4 102930 46
2012-02-21 08:14:14 51°18.465 2°50.939 7.1 270 4 102930 46
2012-02-21 08:14:19 51°18.465 2°50.938 7.6 267 4 102930 46
2012-02-21 08:14:23 51°18.464 2°50.937 7.5 270 4 102930 46
2012-02-21 08:14:28 51°18.463 2°50.936 7.5 24 4 102930 45
2012-02-21 08:14:34 51°18.462 2°50.935 7.6 269 4 102930 45
2012-02-21 08:14:39 51°18.461 2°50.935 8.5 267 4 102930 45
2012-02-21 08:14:43 51°18.46 2°50.933 8.5 270 4 102930 45
2012-02-21 08:14:49 51°18.459 2°50.932 6 265 4 102940 45
2012-02-21 08:14:54 51°18.458 2°50.931 6.8 37 4 102940 45
2012-02-21 08:14:59 51°18.457 2°50.93 8.4 21 4 102940 46
2012-02-21 08:15:03 51°18.456 2°50.929 8.8 33 4 102940 46
2012-02-21 08:15:09 51°18.455 2°50.928 4.4 270 4 102930 45
2012-02-21 08:15:14 51°18.454 2°50.926 6.9 269 4 102930 45
2012-02-21 08:15:19 51°18.453 2°50.925 7.1 270 3.9 102930 43
2012-02-21 08:15:23 51°18.452 2°50.925 8.3 36 3.9 102930 43
2012-02-21 08:15:29 51°18.451 2°50.923 7.6 269 3.9 102930 45
2012-02-21 08:15:34 51°18.45 2°50.922 6.4 34 3.9 102930 45
2012-02-21 08:15:39 51°18.449 2°50.922 5.4 269 4 102930 45
2012-02-21 08:15:43 51°18.449 2°50.921 8.3 270 4 102930 45
2012-02-21 08:15:48 51°18.447 2°50.919 7.8 273 3.9 102930 45
2012-02-21 08:15:54 51°18.446 2°50.918 7.2 270 3.9 102930 45
2012-02-21 08:15:59 51°18.445 2°50.917 7.4 268 4 102930 44
2012-02-21 08:16:03 51°18.444 2°50.916 6.9 267 4 102930 44
2012-02-21 08:16:08 51°18.443 2°50.915 6.4 269 3.9 102930 43
2012-02-21 08:16:14 51°18.442 2°50.914 7.8 27 3.9 102930 43
2012-02-21 08:16:19 51°18.441 2°50.913 8.1 270 3.9 102930 46
2012-02-21 08:16:23 51°18.441 2°50.912 6.6 268 3.9 102930 46
2012-02-21 08:16:29 51°18.439 2°50.911 7.7 268 3.9 102930 45
2012-02-21 08:16:34 51°18.438 2°50.91 5.4 269 3.9 102930 45
2012-02-21 08:16:39 51°18.437 2°50.908 7.5 270 3.9 102930 44
2012-02-21 08:16:43 51°18.437 2°50.907 6.8 267 3.9 102930 44
2012-02-21 08:16:48 51°18.436 2°50.907 6.3 269 3.9 102930 45
2012-02-21 08:16:54 51°18.435 2°50.905 6.3 267 3.9 102930 45
2012-02-21 08:16:59 51°18.434 2°50.904 6.6 267 3.9 102930 46
2012-02-21 08:17:03 51°18.433 2°50.903 7.7 268 3.9 102930 46
2012-02-21 08:17:09 51°18.432 2°50.902 5.2 267 3.9 102940 45
2012-02-21 08:17:14 51°18.431 2°50.901 7.3 269 3.9 102940 45
2012-02-21 08:17:19 51°18.43 2°50.9 6.2 267 3.9 102940 46
2012-02-21 08:17:23 51°18.43 2°50.899 6.9 268 3.9 102940 46
2012-02-21 08:17:28 51°18.429 2°50.898 6.5 264 3.9 102930 46
2012-02-21 08:17:34 51°18.428 2°50.896 5.7 266 3.9 102930 46
2012-02-21 08:17:39 51°18.427 2°50.895 6.2 267 3.9 102940 46
2012-02-21 08:17:43 51°18.426 2°50.894 7 270 3.9 102940 46
2012-02-21 08:17:49 51°18.425 2°50.893 6.5 283 3.9 102940 45
2012-02-21 08:17:54 51°18.424 2°50.891 6.5 266 3.9 102940 45
2012-02-21 08:17:59 51°18.423 2°50.89 6.8 266 3.9 102940 45
2012-02-21 08:18:03 51°18.423 2°50.889 5.8 267 3.9 102940 45
2012-02-21 08:18:08 51°18.422 2°50.888 7.2 264 3.9 102930 46
2012-02-21 08:18:14 51°18.421 2°50.886 5.8 265 3.9 102930 46
2012-02-21 08:18:19 51°18.42 2°50.885 6.6 263 3.9 102930 46
2012-02-21 08:18:23 51°18.419 2°50.884 6.4 264 3.9 102930 46
2012-02-21 08:18:29 51°18.418 2°50.883 6.7 264 3.9 102930 45
2012-02-21 08:18:34 51°18.417 2°50.881 5.9 264 3.9 102930 45
2012-02-21 08:18:39 51°18.416 2°50.88 6 264 3.9 102940 45
2012-02-21 08:18:43 51°18.416 2°50.879 7.9 263 3.9 102940 45
2012-02-21 08:18:48 51°18.415 2°50.878 7.1 268 3.9 102930 45
2012-02-21 08:18:54 51°18.414 2°50.877 6.3 266 3.9 102930 45
2012-02-21 08:18:59 51°18.413 2°50.876 6.5 286 3.9 102930 47
2012-02-21 08:19:03 51°18.413 2°50.875 6.8 263 3.9 102930 47
2012-02-21 08:19:09 51°18.412 2°50.873 6.1 264 3.9 102930 46
2012-02-21 08:19:14 51°18.411 2°50.872 6.1 264 3.9 102930 46
2012-02-21 08:19:19 51°18.41 2°50.871 6.3 264 3.9 102920 45
2012-02-21 08:19:23 51°18.41 2°50.87 6.3 265 3.9 102920 45
2012-02-21 08:19:28 51°18.408 2°50.869 7.1 266 3.9 102930 46
2012-02-21 08:19:34 51°18.407 2°50.867 6.4 265 3.9 102930 46
2012-02-21 08:19:39 51°18.406 2°50.866 7.5 262 3.9 102930 46
2012-02-21 08:19:43 51°18.406 2°50.866 7.9 264 3.9 102930 46
2012-02-21 08:19:49 51°18.405 2°50.864 6.5 265 3.9 102930 45
2012-02-21 08:19:54 51°18.404 2°50.863 6.4 265 3.9 102930 45
2012-02-21 08:19:59 51°18.403 2°50.862 6.6 263 3.9 102930 45
2012-02-21 08:20:03 51°18.402 2°50.861 6.4 263 3.9 102930 45
2012-02-21 08:20:09 51°18.401 2°50.86 5.9 263 3.9 102930 46
2012-02-21 08:20:14 51°18.4 2°50.859 8.8 263 3.9 102930 46
2012-02-21 08:20:19 51°18.399 2°50.858 7.3 262 3.9 102930 46
2012-02-21 08:20:23 51°18.399 2°50.857 6.9 265 3.9 102930 46
2012-02-21 08:20:28 51°18.397 2°50.856 6.3 264 3.9 102930 46
2012-02-21 08:20:34 51°18.396 2°50.855 8.4 263 3.9 102930 46
2012-02-21 08:20:39 51°18.395 2°50.854 5.2 266 3.8 102930 45
2012-02-21 08:20:43 51°18.394 2°50.853 6.5 264 3.8 102930 45
2012-02-21 08:20:48 51°18.394 2°50.852 6.4 265 3.8 102930 45
2012-02-21 08:20:54 51°18.392 2°50.851 5.5 265 3.8 102930 45
2012-02-21 08:20:59 51°18.391 2°50.85 6 265 3.9 102920 45
2012-02-21 08:21:03 51°18.39 2°50.849 5.3 264 3.9 102920 45
2012-02-21 08:21:08 51°18.389 2°50.848 6.5 266 3.9 102930 45
2012-02-21 08:21:14 51°18.388 2°50.846 7.9 264 3.9 102930 45
2012-02-21 08:21:19 51°18.387 2°50.845 4.9 280 3.9 102930 45
2012-02-21 08:21:23 51°18.387 2°50.845 5.1 265 3.9 102930 45
2012-02-21 08:21:29 51°18.386 2°50.844 7.7 263 3.9 102920 44
2012-02-21 08:21:34 51°18.385 2°50.843 5.5 266 3.9 102920 44
2012-02-21 08:21:39 51°18.384 2°50.842 6.5 267 3.9 102930 45
2012-02-21 08:21:43 51°18.383 2°50.841 6.2 267 3.9 102930 45
2012-02-21 08:21:48 51°18.382 2°50.84 7 265 3.9 102920 46
2012-02-21 08:21:54 51°18.381 2°50.839 6.3 266 3.9 102920 46
2012-02-21 08:21:59 51°18.38 2°50.838 6.6 265 3.9 102920 46
2012-02-21 08:22:03 51°18.379 2°50.837 7.3 267 3.9 102920 46
2012-02-21 08:22:09 51°18.378 2°50.836 6.7 263 3.9 102920 46
2012-02-21 08:22:14 51°18.377 2°50.835 5.8 266 3.9 102920 46
2012-02-21 08:22:19 51°18.376 2°50.835 6.5 268 3.9 102920 45
2012-02-21 08:22:23 51°18.375 2°50.835 6.6 268 3.9 102920 45
2012-02-21 08:22:28 51°18.374 2°50.834 5.3 267 3.9 102920 46
2012-02-21 08:22:34 51°18.373 2°50.832 7.3 268 3.9 102920 46
2012-02-21 08:22:39 51°18.372 2°50.832 6.8 267 3.9 102920 45
2012-02-21 08:22:43 51°18.371 2°50.831 5.2 265 3.9 102920 45
2012-02-21 08:22:48 51°18.37 2°50.83 6.2 267 3.9 102940 46
2012-02-21 08:22:54 51°18.369 2°50.829 7.4 267 3.9 102940 46
2012-02-21 08:22:59 51°18.368 2°50.828 5.4 265 3.9 102920 45
2012-02-21 08:23:03 51°18.367 2°50.828 7.4 267 3.9 102920 45
2012-02-21 08:23:08 51°18.366 2°50.827 5.7 265 3.9 102920 46
2012-02-21 08:23:14 51°18.365 2°50.826 6.8 269 3.9 102920 46
2012-02-21 08:23:19 51°18.364 2°50.825 6 269 3.9 102920 45
2012-02-21 08:23:23 51°18.363 2°50.825 5.3 268 3.9 102920 45
2012-02-21 08:23:29 51°18.362 2°50.824 4.7 264 3.9 102930 45
2012-02-21 08:23:34 51°18.36 2°50.823 6.6 268 3.9 102930 45
2012-02-21 08:23:39 51°18.359 2°50.822 7.4 270 3.9 102930 46
2012-02-21 08:23:43 51°18.358 2°50.821 6.2 269 3.9 102930 46
2012-02-21 08:23:48 51°18.357 2°50.82 9.1 270 3.9 102930 46
2012-02-21 08:23:54 51°18.356 2°50.82 5.6 267 3.9 102930 46
2012-02-21 08:23:59 51°18.356 2°50.819 5.8 267 3.9 102920 45
2012-02-21 08:24:03 51°18.354 2°50.818 6.9 269 3.9 102920 45
2012-02-21 08:24:09 51°18.353 2°50.817 7.5 267 3.9 102920 45
2012-02-21 08:24:14 51°18.352 2°50.816 6.3 265 3.9 102920 45
2012-02-21 08:24:19 51°18.351 2°50.816 7.3 270 3.9 102930 47
2012-02-21 08:24:23 51°18.35 2°50.815 6.1 267 3.9 102930 47
2012-02-21 08:24:29 51°18.349 2°50.814 6.5 268 3.9 102920 45
2012-02-21 08:24:34 51°18.348 2°50.814 7.1 270 3.9 102920 45
2012-02-21 08:24:39 51°18.347 2°50.813 8.2 269 3.9 102920 45
2012-02-21 08:24:43 51°18.346 2°50.812 6.2 265 3.9 102920 45
2012-02-21 08:24:49 51°18.345 2°50.811 7.5 282 3.9 102930 46
2012-02-21 08:24:54 51°18.344 2°50.81 5.9 268 3.9 102930 46
2012-02-21 08:24:59 51°18.343 2°50.809 7.4 269 3.9 102920 45
2012-02-21 08:25:03 51°18.342 2°50.808 7.7 270 3.9 102920 45
2012-02-21 08:25:09 51°18.34 2°50.807 7.8 269 3.8 102920 46
2012-02-21 08:25:14 51°18.34 2°50.807 5.8 267 3.8 102920 46
2012-02-21 08:25:19 51°18.339 2°50.806 6.2 267 3.9 102930 46
2012-02-21 08:25:23 51°18.338 2°50.805 7.1 266 3.9 102930 46
2012-02-21 08:25:29 51°18.337 2°50.804 7.1 268 3.9 102930 46
2012-02-21 08:25:34 51°18.336 2°50.803 7.8 270 3.9 102930 46
2012-02-21 08:25:39 51°18.335 2°50.802 7.1 268 3.9 102930 46
2012-02-21 08:25:43 51°18.334 2°50.802 9.6 270 3.9 102930 46
2012-02-21 08:25:48 51°18.333 2°50.801 6.3 268 3.9 102930 46
2012-02-21 08:25:54 51°18.332 2°50.8 6.7 267 3.9 102930 46
2012-02-21 08:25:59 51°18.331 2°50.799 7.4 268 3.9 102930 46
2012-02-21 08:26:04 51°18.33 2°50.798 6.1 265 3.9 102930 46
2012-02-21 08:26:09 51°18.329 2°50.797 6.7 261 3.9 102920 45
2012-02-21 08:26:14 51°18.328 2°50.796 6.1 266 3.9 102920 45
2012-02-21 08:26:19 51°18.327 2°50.795 7.3 265 3.9 102920 45
2012-02-21 08:26:23 51°18.326 2°50.795 7.3 267 3.9 102920 45
2012-02-21 08:26:29 51°18.325 2°50.793 7.7 272 3.9 102920 45
2012-02-21 08:26:34 51°18.324 2°50.793 5.7 267 3.9 102920 45
2012-02-21 08:26:39 51°18.324 2°50.792 6.6 267 3.9 102930 46
2012-02-21 08:26:43 51°18.323 2°50.791 6.1 267 3.9 102930 46
2012-02-21 08:26:49 51°18.321 2°50.79 7.6 270 3.9 102920 45
2012-02-21 08:26:54 51°18.321 2°50.79 7 269 3.9 102920 45
2012-02-21 08:26:59 51°18.32 2°50.789 7.4 269 3.9 102920 46
2012-02-21 08:27:03 51°18.319 2°50.789 7.9 263 3.9 102920 46
2012-02-21 08:27:09 51°18.318 2°50.787 7.9 268 3.9 102930 47
2012-02-21 08:27:14 51°18.317 2°50.787 7 270 3.9 102930 47
2012-02-21 08:27:19 51°18.316 2°50.785 7.2 269 3.9 102930 44
2012-02-21 08:27:23 51°18.315 2°50.784 7.1 269 3.9 102930 44
2012-02-21 08:27:28 51°18.314 2°50.784 6 268 3.9 102930 46
2012-02-21 08:27:34 51°18.313 2°50.783 6.9 270 3.9 102930 46
2012-02-21 08:27:39 51°18.312 2°50.782 7.5 268 3.9 102920 46
2012-02-21 08:27:43 51°18.311 2°50.781 6.6 269 3.9 102920 46
2012-02-21 08:27:48 51°18.31 2°50.78 7.5 270 3.9 102920 45
2012-02-21 08:27:54 51°18.309 2°50.778 7.5 15 3.9 102920 45
2012-02-21 08:27:59 51°18.307 2°50.778 8.1 268 3.9 102930 46
2012-02-21 08:28:03 51°18.307 2°50.777 7.8 270 3.9 102930 46
2012-02-21 08:28:09 51°18.306 2°50.776 8.2 269 3.9 102920 46
2012-02-21 08:28:14 51°18.305 2°50.775 7.9 270 3.9 102920 46
2012-02-21 08:28:19 51°18.303 2°50.774 6.7 269 3.9 102930 46
2012-02-21 08:28:23 51°18.303 2°50.774 7.7 267 3.9 102930 46
2012-02-21 08:28:28 51°18.302 2°50.772 6.4 267 3.9 102920 46
2012-02-21 08:28:34 51°18.301 2°50.772 6.3 267 3.9 102920 46